KC7FQC Weather Reports


Display with metric or nautical units.
time (UTC)temp
F
wind
direction
speed
MPH
gust
MPH
rain 1hr
in
rain 24hr
in
rain mn
in
humidity
%
barometer
mb
20190822222850 111 235 9.0 15.0 0.00 0.00 0.00 18 1004.3
20190822215849 111 237 7.0 13.0 0.00 0.00 0.00 19 1004.8
20190822212849 113 204 6.0 10.0 0.00 0.00 0.00 18 1005.5
20190822205849 112 238 3.0 11.0 0.00 0.00 0.00 18 1006.2
20190822202849 109 174 5.0 13.0 0.00 0.00 0.00 20 1006.5
20190822195849 109 194 1.0 12.0 0.00 0.00 0.00 21 1006.8
20190822192849 107 138 5.0 12.0 0.00 0.00 0.00 22 1007.3
20190822185849 106 150 3.0 10.0 0.00 0.00 0.00 23 1007.4
20190822182849 105 155 4.0 12.0 0.00 0.00 0.00 23 1007.7
20190822175904 103 163 4.0 8.0 0.00 0.00 0.00 22 1008.0
20190822172849 102 69 4.0 9.0 0.00 0.00 0.00 21 1008.3
20190822165848 103 109 6.0 8.0 0.00 0.00 0.00 18 1008.1
20190822162848 101 190 4.0 5.0 0.00 0.00 0.00 19 1008.3
20190822155849 99 191 0.0 4.0 0.00 0.00 0.00 21 1008.5
20190822152848 96 191 0.0 1.0 0.00 0.00 0.00 25 1008.4
20190822145848 93 191 0.0 0.0 0.00 0.00 0.00 25 1008.4
20190822142848 89 191 0.0 3.0 0.00 0.00 0.00 29 1008.2
20190822135848 87 191 2.0 4.0 0.00 0.00 0.00 27 1007.9
20190822132848 85 191 1.0 6.0 0.00 0.00 0.00 25 1007.8
20190822125848 83 198 4.0 5.0 0.00 0.00 0.00 26 1007.3
20190822122849 83 199 1.0 4.0 0.00 0.00 0.00 27 1006.9
20190822115848 83 199 0.0 5.0 0.00 0.00 0.00 27 1006.6
20190822112848 82 199 0.0 2.0 0.00 0.00 0.00 30 1006.2
20190822105848 82 199 0.0 4.0 0.00 0.00 0.00 29 1006.1
20190822102847 82 199 0.0 1.0 0.00 0.00 0.00 31 1005.6
20190822095848 83 199 0.0 0.0 0.00 0.00 0.00 31 1005.4
20190822072847 89 199 1.0 2.0 0.00 0.00 0.00 21 1005.3
20190822065847 90 199 0.0 4.0 0.00 0.00 0.00 21 1005.2
20190822062847 90 199 0.0 2.0 0.00 0.00 0.00 20 1005.1
20190822055847 91 199 0.0 1.0 0.00 0.00 0.00 20 1005.2
20190822052847 94 199 0.0 1.0 0.00 0.00 0.00 18 1005.0
20190822045847 95 199 0.0 1.0 0.00 0.00 0.00 17 1005.0
20190822042847 96 199 0.0 4.0 0.00 0.00 0.00 16 1004.9
20190822035846 97 199 0.0 0.0 0.00 0.00 0.00 17 1004.9
20190822032846 101 199 0.0 0.0 0.00 0.00 0.00 15 1004.5
20190822025846 104 199 0.0 5.0 0.00 0.00 0.00 13 1004.3
20190822022846 106 199 5.0 11.0 0.00 0.00 0.00 11 1004.1
20190822015846 109 200 10.0 11.0 0.00 0.00 0.00 9 1004.1
20190822012846 111 209 8.0 12.0 0.00 0.00 0.00 9 1003.5
20190822005846 112 204 5.0 15.0 0.00 0.00 0.00 9 1003.5
20190822002902 114 255 4.0 13.0 0.00 0.00 0.00 9 1003.6
20190821235848 115 233 8.0 15.0 0.00 0.00 0.00 9 1003.9
20190821232847 115 214 7.0 14.0 0.00 0.00 0.00 9 1004.3
20190821225846 115 215 5.0 16.0 0.00 0.00 0.00 9 1004.7